timestamp,wind_dir_avg,wind_spd_avg,wind_spd_max_dir,wind_spd_gust,battery_voltage,lat,long
2019-12-21 00:04:01+00:00,355.0,10.97,349.0,12.36,12.65,47.59359,-54.27349
2019-12-21 00:14:01+00:00,355.0,10.38,356.0,11.75,12.57,47.59359,-54.27349
2019-12-21 00:24:01+00:00,336.0,8.28,334.0,9.36,12.57,47.59359,-54.27349
2019-12-21 00:34:01+00:00,338.0,9.46,336.0,10.66,12.57,47.59359,-54.27349
2019-12-21 00:44:01+00:00,342.0,8.27,339.0,9.0,12.57,47.59359,-54.27349
2019-12-21 00:54:01+00:00,3.0,11.63,2.0,13.17,12.57,47.59359,-54.27349
2019-12-21 01:04:01+00:00,7.0,10.33,10.0,11.95,12.57,47.59359,-54.27349
2019-12-21 01:14:01+00:00,3.0,10.09,2.0,11.38,12.57,47.59359,-54.27349
2019-12-21 01:24:01+00:00,8.0,9.97,11.0,11.12,12.57,47.59359,-54.27349
2019-12-21 01:34:01+00:00,15.0,10.93,13.0,12.7,12.57,47.59359,-54.27349
2019-12-21 01:44:01+00:00,10.0,10.44,13.0,11.48,12.57,47.59359,-54.27349
2019-12-21 01:54:01+00:00,6.0,10.27,7.0,11.54,12.57,47.59359,-54.27349
2019-12-21 02:04:01+00:00,8.0,10.62,9.0,12.24,12.57,47.59359,-54.27349
2019-12-21 02:14:01+00:00,19.0,10.8,20.0,13.34,12.57,47.59359,-54.27349
2019-12-21 02:24:01+00:00,20.0,10.36,23.0,12.07,12.57,47.59359,-54.27349
2019-12-21 02:34:01+00:00,13.0,9.26,10.0,10.95,12.57,47.59359,-54.27349
2019-12-21 02:44:01+00:00,19.0,10.94,25.0,13.22,12.57,47.59359,-54.27349
2019-12-21 02:54:01+00:00,14.0,10.92,8.0,12.58,12.57,47.59359,-54.27349
2019-12-21 03:04:01+00:00,13.0,10.65,13.0,11.84,12.57,47.59359,-54.27349
2019-12-21 03:14:01+00:00,8.0,11.7,7.0,13.32,12.57,47.59359,-54.27349
2019-12-21 03:24:01+00:00,12.0,11.69,13.0,12.91,12.57,47.59359,-54.27349
2019-12-21 03:34:01+00:00,11.0,13.75,14.0,15.6,12.57,47.59359,-54.27349
2019-12-21 03:44:01+00:00,12.0,14.71,7.0,17.48,12.57,47.59359,-54.27349
2019-12-21 03:54:01+00:00,9.0,14.64,8.0,17.56,12.57,47.59359,-54.27349
2019-12-21 04:04:01+00:00,17.0,13.67,18.0,17.01,12.57,47.59359,-54.27349
2019-12-21 04:14:01+00:00,18.0,13.69,15.0,16.49,12.57,47.59359,-54.27349
2019-12-21 04:24:01+00:00,13.0,14.02,15.0,15.75,12.57,47.59359,-54.27349
2019-12-21 04:34:01+00:00,13.0,11.86,14.0,13.4,12.57,47.59359,-54.27349
2019-12-21 04:44:01+00:00,12.0,12.73,19.0,15.33,12.57,47.59359,-54.27349
2019-12-21 04:54:01+00:00,15.0,10.3,9.0,12.24,12.57,47.59359,-54.27349
2019-12-21 05:04:01+00:00,14.0,12.19,17.0,14.08,12.57,47.59359,-54.27349
2019-12-21 05:14:01+00:00,21.0,14.58,31.0,18.03,12.57,47.59359,-54.27349
2019-12-21 05:24:01+00:00,22.0,11.31,15.0,13.41,12.57,47.59359,-54.27349
2019-12-21 05:34:01+00:00,14.0,12.15,20.0,13.52,12.57,47.59359,-54.27349
2019-12-21 05:44:01+00:00,18.0,11.15,20.0,12.78,12.57,47.59359,-54.27349
2019-12-21 05:54:01+00:00,19.0,11.74,9.0,13.74,12.57,47.59359,-54.27349
2019-12-21 06:04:01+00:00,14.0,13.53,11.0,16.54,12.57,47.59359,-54.27349
2019-12-21 06:14:01+00:00,10.0,13.91,13.0,16.28,12.49,47.59359,-54.27349
2019-12-21 06:24:01+00:00,15.0,14.79,19.0,17.19,12.49,47.59359,-54.27349
2019-12-21 06:34:01+00:00,11.0,16.63,19.0,19.38,12.49,47.59359,-54.27349
2019-12-21 06:44:01+00:00,14.0,12.37,10.0,14.87,12.49,47.59359,-54.27349
2019-12-21 06:54:01+00:00,5.0,10.79,3.0,12.06,12.49,47.59359,-54.27349
2019-12-21 07:04:01+00:00,6.0,13.16,13.0,14.97,12.49,47.59359,-54.27349
2019-12-21 07:14:01+00:00,7.0,13.22,8.0,15.63,12.49,47.59359,-54.27349
2019-12-21 07:24:01+00:00,11.0,14.39,13.0,15.74,12.49,47.59359,-54.27349
2019-12-21 07:34:01+00:00,12.0,15.82,11.0,18.63,12.49,47.59359,-54.27349
2019-12-21 07:44:01+00:00,11.0,12.83,18.0,16.13,12.49,47.59359,-54.27349
2019-12-21 07:54:01+00:00,7.0,11.51,8.0,13.94,12.49,47.59359,-54.27349
2019-12-21 08:04:01+00:00,8.0,13.27,11.0,15.51,12.49,47.59359,-54.27349
2019-12-21 08:14:01+00:00,2.0,13.03,8.0,15.02,12.49,47.59359,-54.27349
2019-12-21 08:24:01+00:00,8.0,10.88,10.0,12.84,12.49,47.59359,-54.27349
2019-12-21 08:34:01+00:00,7.0,12.24,11.0,13.81,12.49,47.59359,-54.27349
2019-12-21 08:44:01+00:00,4.0,10.4,3.0,11.87,12.49,47.59359,-54.27349
2019-12-21 08:54:01+00:00,7.0,11.94,12.0,13.82,12.49,47.59359,-54.27349
2019-12-21 09:04:01+00:00,14.0,12.87,18.0,15.22,12.49,47.59359,-54.27349
2019-12-21 09:14:01+00:00,16.0,11.34,21.0,12.56,12.49,47.59359,-54.27349
2019-12-21 09:24:01+00:00,10.0,11.82,14.0,14.13,12.49,47.59359,-54.27349
2019-12-21 09:34:01+00:00,9.0,10.72,20.0,12.57,12.49,47.59359,-54.27349
2019-12-21 09:44:01+00:00,12.0,10.82,17.0,12.77,12.49,47.59359,-54.27349
2019-12-21 09:54:01+00:00,7.0,9.41,10.0,11.44,12.49,47.59359,-54.27349
2019-12-21 10:04:01+00:00,358.0,8.23,356.0,9.43,12.49,47.59359,-54.27349
2019-12-21 10:14:01+00:00,357.0,8.91,354.0,9.98,12.49,47.59359,-54.27349
2019-12-21 10:24:01+00:00,8.0,7.59,4.0,8.68,12.49,47.59359,-54.27349
2019-12-21 10:34:01+00:00,5.0,8.44,3.0,9.53,12.49,47.59359,-54.27349
2019-12-21 10:44:01+00:00,357.0,10.64,359.0,12.51,12.49,47.59359,-54.27349
2019-12-21 10:54:01+00:00,1.0,10.44,2.0,12.14,12.49,47.59359,-54.27349
2019-12-21 11:04:01+00:00,358.0,9.16,5.0,10.22,12.49,47.59359,-54.27349
2019-12-21 11:14:01+00:00,356.0,9.15,358.0,10.45,12.41,47.59359,-54.27349
2019-12-21 11:24:01+00:00,359.0,8.57,358.0,9.47,12.41,47.59359,-54.27349
2019-12-21 11:34:01+00:00,0.0,9.74,2.0,10.82,12.41,47.59359,-54.27349
2019-12-21 11:44:01+00:00,357.0,8.62,7.0,10.0,12.41,47.59359,-54.27349
2019-12-21 11:54:01+00:00,4.0,8.49,8.0,9.74,12.41,47.59359,-54.27349
2019-12-21 12:04:01+00:00,0.0,9.38,3.0,10.29,12.41,47.59359,-54.27349
2019-12-21 12:14:01+00:00,0.0,8.04,353.0,9.33,12.73,47.59359,-54.27349
2019-12-21 12:24:01+00:00,355.0,8.78,358.0,10.49,12.73,47.59359,-54.27349
2019-12-21 12:34:01+00:00,354.0,8.45,356.0,9.73,12.73,47.59359,-54.27349
2019-12-21 12:44:01+00:00,350.0,9.54,357.0,10.66,12.73,47.59359,-54.27349
2019-12-21 12:54:01+00:00,355.0,8.91,358.0,10.19,12.73,47.59359,-54.27349
2019-12-21 13:04:01+00:00,1.0,9.17,4.0,10.63,12.73,47.59359,-54.27349
2019-12-21 13:14:01+00:00,5.0,9.41,5.0,11.44,14.0,47.59359,-54.27349
2019-12-21 13:24:01+00:00,6.0,9.65,8.0,11.2,14.0,47.59359,-54.27349
2019-12-21 13:34:01+00:00,7.0,8.67,4.0,9.79,14.0,47.59359,-54.27349
2019-12-21 13:44:01+00:00,6.0,9.43,4.0,10.91,14.0,47.59359,-54.27349
2019-12-21 13:54:01+00:00,5.0,10.36,5.0,12.15,14.0,47.59359,-54.27349
2019-12-21 14:04:01+00:00,2.0,11.33,6.0,12.63,14.0,47.59359,-54.27349
2019-12-21 14:14:01+00:00,7.0,10.66,3.0,12.54,13.68,47.59359,-54.27349
2019-12-21 14:24:01+00:00,12.0,10.84,14.0,12.43,13.68,47.59359,-54.27349
2019-12-21 14:34:01+00:00,14.0,10.83,18.0,12.4,13.68,47.59359,-54.27349
2019-12-21 14:44:01+00:00,15.0,11.38,10.0,13.23,13.68,47.59359,-54.27349
2019-12-21 14:54:01+00:00,23.0,10.2,32.0,12.32,13.68,47.59359,-54.27349
2019-12-21 15:04:01+00:00,12.0,9.6,13.0,10.62,13.68,47.59359,-54.27349
2019-12-21 15:14:01+00:00,19.0,8.25,29.0,10.23,14.16,47.59359,-54.27349
2019-12-21 15:24:01+00:00,11.0,11.04,13.0,13.08,14.16,47.59359,-54.27349
2019-12-21 15:34:01+00:00,15.0,10.48,9.0,12.11,14.16,47.59359,-54.27349
2019-12-21 15:44:01+00:00,14.0,10.35,21.0,11.66,14.16,47.59359,-54.27349
2019-12-21 15:54:01+00:00,13.0,9.99,7.0,11.79,14.16,47.59359,-54.27349
2019-12-21 16:04:01+00:00,23.0,8.19,27.0,9.9,14.16,47.59359,-54.27349
2019-12-21 16:14:01+00:00,10.0,10.36,12.0,11.67,13.6,47.59359,-54.27349
2019-12-21 16:24:01+00:00,12.0,9.83,11.0,11.53,13.6,47.59359,-54.27349
2019-12-21 16:34:01+00:00,15.0,9.65,20.0,10.74,13.6,47.59359,-54.27349
2019-12-21 16:44:01+00:00,14.0,8.73,16.0,10.07,13.6,47.59359,-54.27349
2019-12-21 16:54:01+00:00,3.0,9.31,357.0,10.4,13.6,47.59359,-54.27349
2019-12-21 17:04:01+00:00,17.0,9.87,19.0,11.84,13.6,47.59359,-54.27349
2019-12-21 17:14:01+00:00,11.0,8.25,11.0,9.07,14.0,47.59359,-54.27349
2019-12-21 17:24:01+00:00,27.0,8.37,33.0,9.52,14.0,47.59359,-54.27349
2019-12-21 17:34:01+00:00,12.0,9.69,9.0,10.79,14.0,47.59359,-54.27349
2019-12-21 17:44:01+00:00,4.0,9.86,6.0,11.23,14.0,47.59359,-54.27349
2019-12-21 17:54:01+00:00,8.0,9.95,7.0,10.94,14.0,47.59359,-54.27349
2019-12-21 18:04:01+00:00,7.0,10.87,7.0,12.45,14.0,47.59359,-54.27349
2019-12-21 18:14:01+00:00,18.0,11.49,19.0,13.08,13.6,47.59359,-54.27349
2019-12-21 18:24:01+00:00,4.0,10.05,4.0,11.8,13.6,47.59359,-54.27349
2019-12-21 18:34:01+00:00,2.0,7.76,357.0,8.68,13.6,47.59359,-54.27349
2019-12-21 18:44:01+00:00,7.0,9.32,5.0,10.81,13.6,47.59359,-54.27349
2019-12-21 18:54:01+00:00,350.0,9.24,352.0,10.82,13.6,47.59359,-54.27349
2019-12-21 19:04:01+00:00,2.0,8.62,0.0,9.73,13.6,47.59359,-54.27349
2019-12-21 19:14:01+00:00,1.0,8.26,0.0,9.22,12.97,47.59359,-54.27349
2019-12-21 19:24:01+00:00,353.0,8.34,349.0,9.07,12.97,47.59359,-54.27349
2019-12-21 19:34:01+00:00,8.0,8.02,7.0,8.86,12.97,47.59359,-54.27349
2019-12-21 19:44:01+00:00,358.0,7.88,2.0,8.99,12.97,47.59359,-54.27349
2019-12-21 19:54:01+00:00,359.0,9.42,5.0,10.49,12.97,47.59359,-54.27349
2019-12-21 20:04:01+00:00,351.0,9.73,353.0,11.0,12.97,47.59359,-54.27349
2019-12-21 20:14:01+00:00,1.0,8.62,2.0,10.26,12.73,47.59359,-54.27349
2019-12-21 20:24:01+00:00,1.0,8.04,5.0,8.83,12.73,47.59359,-54.27349
2019-12-21 20:34:01+00:00,2.0,8.61,8.0,10.08,12.73,47.59359,-54.27349
2019-12-21 20:44:01+00:00,5.0,9.26,5.0,10.55,12.73,47.59359,-54.27349
2019-12-21 20:54:01+00:00,7.0,8.46,10.0,9.52,12.73,47.59359,-54.27349
2019-12-21 21:04:01+00:00,357.0,8.81,358.0,9.81,12.73,47.59359,-54.27349
2019-12-21 21:14:01+00:00,2.0,8.62,4.0,10.02,12.65,47.59359,-54.27349
2019-12-21 21:24:01+00:00,6.0,7.82,3.0,8.61,12.65,47.59359,-54.27349
2019-12-21 21:34:01+00:00,5.0,8.02,9.0,9.97,12.65,47.59359,-54.27349
2019-12-21 21:44:01+00:00,6.0,8.36,6.0,9.61,12.65,47.59359,-54.27349
2019-12-21 21:54:01+00:00,8.0,7.43,14.0,8.14,12.65,47.59359,-54.27349
2019-12-21 22:04:01+00:00,8.0,6.94,11.0,7.69,12.65,47.59359,-54.27349
2019-12-21 22:14:01+00:00,3.0,5.96,0.0,7.49,12.65,47.59359,-54.27349
2019-12-21 22:24:01+00:00,8.0,7.08,2.0,8.12,12.65,47.59359,-54.27349
2019-12-21 22:34:01+00:00,8.0,6.79,11.0,8.37,12.65,47.59359,-54.27349
2019-12-21 22:44:01+00:00,2.0,7.27,0.0,8.42,12.65,47.59359,-54.27349
2019-12-21 22:54:01+00:00,358.0,7.24,359.0,8.29,12.65,47.59359,-54.27349
2019-12-21 23:04:01+00:00,347.0,7.5,355.0,8.64,12.65,47.59359,-54.27349
2019-12-21 23:14:01+00:00,355.0,7.89,351.0,9.22,12.65,47.59359,-54.27349
2019-12-21 23:24:01+00:00,355.0,7.56,356.0,8.88,12.65,47.59359,-54.27349
2019-12-21 23:34:01+00:00,4.0,7.62,2.0,8.87,12.65,47.59359,-54.27349
2019-12-21 23:44:01+00:00,345.0,6.97,346.0,7.71,12.65,47.59359,-54.27349
2019-12-21 23:54:01+00:00,356.0,5.98,357.0,6.65,12.65,47.59359,-54.27349
